Angel Fire, NM

2:06 PM MST on December 06, 2019 (GMT -0700)
Angel Fire

Weather History for KAXX - October, 2019

Change the Weather History Date:

Saturday, October 19, 2019

  Actual Average (WUND) Record (WUND)
Temperature  
Mean Temperature 30 °F -  
Max Temperature 52 °F - - (-1)
Min Temperature 9 °F - - (-1)
Degree Days  
Heating Degree Days 34    
Moisture  
Dew Point 9 °F    
Average Humidity 41    
Maximum Humidity 91    
Minimum Humidity 13    
Precipitation  
Precipitation 0.00 in - - ()
Sea Level Pressure  
Sea Level Pressure 30.04 in    
Wind  
Wind Speed 7 mph (WSW)    
Max Wind Speed 23 mph    
Max Gust Speed 34 mph    
Visibility 10 miles    
Events      
Averages and records for this station are not official NWS values.
T = Trace of Precipitation, MM = Missing Value Source: NWS Daily Summary

Daily Weather History Graph

Daily Weather History Graph

Search for Another Location

Airport or City:

Astronomy

Oct. 19, 2019 Rise Set
Actual Time 7:11 AM MDT 6:19 PM MDT
Civil Twilight 6:45 AM MDT 6:45 PM MDT
Nautical Twilight 6:15 AM MDT 7:15 PM MDT
Astronomical Twilight 5:45 AM MDT 7:45 PM MDT
Moon 10:38 PM MDT (10/19) 12:39 PM MDT (10/19)
Length of Visible Light 12h 00m
Length of Day
11h 08m
Waning Gibbous, 69% of the Moon is Illuminated
Oct 19
Waning Gibbous
Oct 21
Last Quarter
Oct 27
New
Nov 4
First Quarter
Nov 12
Full

Hourly Weather History & Observations

Time (MDT) Temp. Windchill Dew Point Humidity Pressure Visibility Wind Dir Wind Speed Gust Speed Precip Events Conditions
12:15 AM 39.2 °F - 22.5 °F 51% 30.05 in 10.0 mi Calm Calm - N/A   Clear
12:35 AM 38.5 °F 33.4 °F 22.6 °F 53% 30.06 in 10.0 mi West 6.9 mph - N/A   Clear
12:55 AM 31.3 °F 23.9 °F 21.0 °F 66% 30.06 in 10.0 mi West 8.1 mph - N/A   Clear
1:15 AM 25.9 °F 20.3 °F 19.8 °F 78% 30.06 in 10.0 mi West 4.6 mph - N/A   Clear
2:15 AM 28.9 °F 25.2 °F 20.3 °F 70% 30.06 in 10.0 mi WSW 3.5 mph - N/A   Clear
2:35 AM 25.5 °F 19.9 °F 19.4 °F 78% 30.07 in 10.0 mi South 4.6 mph - N/A   Clear
2:55 AM 25.0 °F - 19.6 °F 80% 30.07 in 10.0 mi Calm Calm - N/A   Clear
3:15 AM 23.4 °F - 18.1 °F 80% 30.07 in 10.0 mi Calm Calm - N/A   Clear
3:35 AM 19.9 °F - 17.6 °F 91% 30.07 in 10.0 mi Calm Calm - N/A   Clear
3:55 AM 19.9 °F 14.9 °F 16.7 °F 87% 30.07 in 10.0 mi SSW 3.5 mph - N/A   Clear
4:15 AM 20.5 °F - 16.9 °F 86% 30.07 in 10.0 mi Calm Calm - N/A   Clear
4:35 AM 19.6 °F - 16.0 °F 86% 30.07 in 10.0 mi Calm Calm - N/A   Clear
4:55 AM 17.4 °F - 13.3 °F 84% 30.07 in 10.0 mi Calm Calm - N/A   Clear
5:15 AM 16.7 °F - 13.5 °F 87% 30.07 in 10.0 mi Calm Calm - N/A   Clear
5:35 AM 17.1 °F 11.7 °F 14.0 °F 88% 30.08 in 10.0 mi SE 3.5 mph - N/A   Clear
5:55 AM 15.4 °F - 13.1 °F 90% 30.08 in 10.0 mi Calm Calm - N/A   Clear
6:15 AM 12.7 °F - 10.0 °F 89% 30.09 in 10.0 mi Calm Calm - N/A   Clear
6:35 AM 12.2 °F - 8.6 °F 85% 30.09 in 10.0 mi Calm Calm - N/A   Clear
6:55 AM 14.4 °F - 10.9 °F 86% 30.10 in 10.0 mi Calm Calm - N/A   Clear
7:15 AM 9.7 °F - 7.2 °F 90% 30.10 in 10.0 mi Calm Calm - N/A   Clear
7:35 AM 12.9 °F - 9.1 °F 85% 30.11 in 10.0 mi Calm Calm - N/A   Clear
7:55 AM 11.8 °F - 8.8 °F 88% 30.11 in 10.0 mi Calm Calm - N/A   Clear
8:15 AM 20.7 °F - 16.0 °F 82% 30.11 in 10.0 mi Calm Calm - N/A   Clear
8:35 AM 27.7 °F - 20.3 °F 74% 30.12 in 10.0 mi Calm Calm - N/A   Clear
8:55 AM 34.7 °F 28.8 °F 18.9 °F 52% 30.12 in 10.0 mi SSE 6.9 mph - N/A   Clear
9:15 AM 40.1 °F 36.1 °F 11.5 °F 31% 30.12 in 10.0 mi SE 5.8 mph - N/A   Clear
9:35 AM 42.1 °F 39.2 °F 10.8 °F 28% 30.12 in 10.0 mi East 4.6 mph - N/A   Clear
9:55 AM 42.8 °F - 9.9 °F 26% 30.11 in 10.0 mi Calm Calm - N/A   Clear
10:20 AM 45.3 °F 40.1 °F 7.2 °F 21% 30.11 in 10.0 mi West 10.4 mph 17.3 mph N/A   Clear
10:35 AM 45.5 °F 39.2 °F 6.1 °F 20% 30.11 in 10.0 mi West 13.8 mph 20.7 mph N/A   Clear
10:55 AM 47.1 °F - 6.1 °F 19% 30.11 in 10.0 mi West 12.7 mph 19.6 mph N/A   Clear
11:20 AM 46.9 °F - 5.0 °F 18% 30.11 in 10.0 mi WNW 15.0 mph 21.9 mph N/A   Clear
11:35 AM 48.0 °F - 6.1 °F 18% 30.11 in 10.0 mi West 13.8 mph 24.2 mph N/A   Clear
11:55 AM 48.2 °F - 7.7 °F 19% 30.10 in 10.0 mi WNW 16.1 mph 21.9 mph N/A   Clear
12:15 PM 48.7 °F - 5.9 °F 17% 30.10 in 10.0 mi West 16.1 mph 21.9 mph N/A   Clear
12:35 PM 49.8 °F - 6.3 °F 17% 30.09 in 10.0 mi West 17.3 mph 26.5 mph N/A   Clear
12:55 PM 50.2 °F - 7.2 °F 18% 30.08 in 10.0 mi West 15.0 mph 21.9 mph N/A   Clear
1:15 PM 51.1 °F - 4.8 °F 15% 30.06 in 10.0 mi West 17.3 mph 23.0 mph N/A   Clear
1:35 PM 51.1 °F - 3.0 °F 14% 30.04 in 10.0 mi West 15.0 mph 26.5 mph N/A   Clear
1:55 PM 52.2 °F - 1.8 °F 13% 30.03 in 10.0 mi West 18.4 mph 29.9 mph N/A   Clear
2:15 PM 52.7 °F - 2.5 °F 13% 30.02 in 10.0 mi West 20.7 mph 28.8 mph N/A   Clear
2:35 PM 51.8 °F - 2.7 °F 14% 30.03 in 10.0 mi West 20.7 mph 29.9 mph N/A   Clear
2:55 PM 52.7 °F - 4.3 °F 14% 30.01 in 10.0 mi WSW 23.0 mph 34.5 mph N/A   Clear
3:15 PM 52.2 °F - 4.8 °F 15% 30.01 in 10.0 mi West 20.7 mph 29.9 mph N/A   Clear
3:35 PM 52.7 °F - 5.4 °F 15% 30.01 in 10.0 mi WSW 13.8 mph 21.9 mph N/A   Clear
3:55 PM 52.2 °F - 5.2 °F 15% 30.01 in 10.0 mi WSW 15.0 mph 21.9 mph N/A   Clear
4:15 PM 52.2 °F - 5.4 °F 15% 30.01 in 10.0 mi WSW 16.1 mph 26.5 mph N/A   Clear
4:35 PM 51.8 °F - 5.9 °F 16% 30.00 in 10.0 mi WSW 15.0 mph 25.3 mph N/A   Clear
5:15 PM 50.5 °F - 6.1 °F 16% 30.01 in 10.0 mi West 18.4 mph 31.1 mph N/A   Clear
5:35 PM 50.0 °F - 6.6 °F 17% 30.00 in 10.0 mi West 15.0 mph 23.0 mph N/A   Clear
5:55 PM 48.7 °F - 5.7 °F 17% 29.99 in 10.0 mi WSW 16.1 mph 24.2 mph N/A   Clear
6:15 PM 47.3 °F - 2.8 °F 16% 29.98 in 10.0 mi West 20.7 mph 27.6 mph N/A   Clear
6:35 PM 47.1 °F - 3.0 °F 16% 29.97 in 10.0 mi WSW 18.4 mph 28.8 mph N/A   Clear
6:55 PM 45.9 °F 39.1 °F 3.7 °F 18% 29.97 in 10.0 mi West 16.1 mph 23.0 mph N/A   Clear
7:15 PM 46.2 °F 38.7 °F 4.1 °F 18% 29.98 in 10.0 mi West 19.6 mph 26.5 mph N/A   Clear
7:35 PM 46.4 °F 39.2 °F 4.3 °F 18% 29.98 in 10.0 mi West 18.4 mph 26.5 mph N/A   Clear
7:55 PM 45.5 °F 38.6 °F 4.8 °F 19% 29.97 in 10.0 mi West 16.1 mph 23.0 mph N/A   Clear
8:15 PM 43.5 °F 37.1 °F 5.2 °F 21% 29.97 in 10.0 mi WSW 12.7 mph - N/A   Clear
8:35 PM 40.5 °F 34.1 °F 5.2 °F 23% 29.98 in 10.0 mi WSW 10.4 mph - N/A   Clear
9:15 PM 37.4 °F 29.3 °F 5.9 °F 27% 29.97 in 10.0 mi WSW 12.7 mph - N/A   Clear
9:35 PM 42.4 °F 35.7 °F 5.4 °F 22% 29.96 in 10.0 mi SW 12.7 mph 20.7 mph N/A   Clear
9:55 PM 42.1 °F 35.2 °F 5.5 °F 22% 29.95 in 10.0 mi SW 12.7 mph 17.3 mph N/A   Clear
10:15 PM 42.8 °F 36.2 °F 5.7 °F 22% 29.95 in 10.0 mi SW 12.7 mph 19.6 mph N/A   Clear
10:35 PM 43.3 °F 36.8 °F 5.9 °F 21% 29.95 in 10.0 mi SW 12.7 mph 18.4 mph N/A   Clear
10:55 PM 43.2 °F 35.3 °F 6.8 °F 22% 29.94 in 10.0 mi SW 17.3 mph 25.3 mph N/A   Clear
11:15 PM 44.1 °F 37.1 °F 7.5 °F 22% 29.95 in 10.0 mi SW 15.0 mph 21.9 mph N/A   Clear
11:35 PM 44.1 °F 36.8 °F 7.7 °F 23% 29.94 in 10.0 mi SW 16.1 mph 23.0 mph N/A   Clear
11:55 PM 44.1 °F 37.7 °F 7.3 °F 22% 29.93 in 10.0 mi SW 12.7 mph 19.6 mph N/A   Clear